Location: Maiden
(35.5760°N, 81.2120°W)
Time: 03:08:47
(UTC-04:00)

Timation 1 Rocket - Pass Details

Date: 14 June 2018
Orbit: 897 x 911 km, 70.0° (Epoch: 14 August)

Event Time Altitude Azimuth Distance (km) Brightness Sun altitude
Exits shadow 23:36:10 60° 108° (ESE) 1,024 4.3 -25.7°
Drops below altitude 10° 23:41:59 10° 31° (NNE) 2,578 7.1 -26.2°
Sets 23:44:31 0° 27° (NNE) 3,524 7.9 -26.5°
